Home   Weather   Portland   Past weeks

Flag for USA Past Weather in Portland, Oregon, USA — Yesterday and Last 2 Weeks

56 °F

Light rain. Mostly cloudy.

Feels Like: 53 °F
Forecast: 55 / 62 °F
Wind: 13 mph from Southeast

Location: Portland International Airport

Current Time: Oct 26, 2016 at 8:27:25 AM

Latest Report: Oct 26, 2016 at 7:53 AM

Visibility: 9 mi

Pressure: 29.78 "Hg

Humidity: 90%

Dew Point: 53 °F

Location of PortlandLocation

Past Weather in Portland — Graph


Portland Temperature Yesterday

Maximum temperature yesterday: 61 °F (at 2:53 PM)
Minimum temperature yesterday: 49 °F (at 12:53 AM)
Average temperature yesterday: 55 °F

High & Low Weather Summary for the Past Weeks

High66 °F (Oct 11, 2:53 PM)100% (Oct 13, 6:53 AM)30.34 "Hg (Oct 13, 6:53 AM)
Low41 °F (Oct 12, 5:53 AM)32% (Oct 11, 2:53 PM)29.24 "Hg (Oct 15, 3:53 PM)
Average55 °F80%29.84 "Hg
* Reported Oct 11 6:53 AM — Oct 26 6:53 AM, Portland, Weather by CustomWeather, © 2016

Note: Actual official high and low records may vary slightly from our data, if they occured in-between our weather recording intervals... More about our weather records


Portland Weather History for the Previous 24 Hours

Scroll right to see more
Time TempWeatherWind HumidityBarometerVisibility
6:53 AM
Wed, Oct 26
55 °FLight rain. Mostly cloudy.14 mph90%29.78 "Hg9 mi
5:53 AM55 °FLight rain. Overcast.No wind87%29.79 "Hg8 mi
4:53 AM55 °FLight rain. Mostly cloudy.12 mph93%29.79 "Hg10 mi
3:53 AM55 °FRain. Fog.12 mph87%29.82 "Hg6 mi
2:53 AM55 °FLight rain. Overcast.17 mph93%29.83 "Hg10 mi
1:53 AM54 °FLight rain. Overcast.3 mph90%29.91 "Hg9 mi
12:53 AM56 °FOvercast.No wind81%29.90 "Hg10 mi
11:53 PM
Tue, Oct 25
56 °FDrizzle. Mostly cloudy.No wind81%29.91 "Hg10 mi
10:53 PM55 °FDrizzle. Overcast.No wind87%29.94 "Hg10 mi
9:53 PM54 °FOvercast.5 mph90%29.96 "Hg10 mi
8:53 PM54 °FMostly cloudy.5 mph90%29.95 "Hg10 mi
7:53 PM57 °FOvercast.No wind78%29.96 "Hg10 mi
6:53 PM58 °FOvercast.3 mph78%29.97 "Hg10 mi
5:53 PM59 °FMostly cloudy.6 mph72%29.99 "Hg10 mi
4:53 PM61 °FMostly cloudy.6 mph67%29.98 "Hg10 mi
3:53 PM61 °FMostly cloudy.No wind62%29.99 "Hg10 mi
2:53 PM61 °FPartly sunny.No wind67%30.00 "Hg10 mi
1:53 PM60 °FOvercast.No wind69%30.01 "Hg10 mi
12:53 PM58 °FMostly cloudy.3 mph78%30.01 "Hg10 mi
11:53 AM57 °FOvercast.9 mph74%30.01 "Hg10 mi
10:53 AM55 °FOvercast.6 mph80%30.00 "Hg10 mi
9:53 AM54 °FLight rain. Overcast.9 mph83%29.97 "Hg10 mi
8:53 AM54 °FMostly cloudy.9 mph80%29.96 "Hg10 mi
Weather by CustomWeather, © 2016

See weather overviewHow to use our weather pages